Weather History for K6R6 - April, 2013

Change the Weather History Date:

Monday, April 29, 2013

  Actual Average (KFST) Record (KFST)
Temperature  
Mean Temperature 71 °F -  
Max Temperature 88 °F 84 °F 102 °F (2011)
Min Temperature 55 °F 55 °F 45 °F (1998)
Cooling Degree Days 6    
Growing Degree Days 21 (Base 50)    
Moisture  
Dew Point 48 °F    
Average Humidity 50    
Maximum Humidity 83    
Minimum Humidity 20    
Precipitation  
Precipitation 0.00 in - - ()
Sea Level Pressure  
Sea Level Pressure 29.77 in    
Wind  
Wind Speed 7 mph (SE)    
Max Wind Speed 16 mph    
Max Gust Speed 24 mph    
Averages and records for this station are not official NWS values.
T = Trace of Precipitation, MM = Missing Value Source: NWS Daily Summary

Daily Weather History Graph

Daily Weather History Graph

Search for Another Location

Airport or City:

Trip Planner

Search our weather history database for the weather conditions in past years. The results will help you decide how hot, cold, wet, or windy it might be!

Date:

Astronomy

Apr. 29, 2013 Rise Set
Actual Time 7:07 AM CDT 8:25 PM CDT
Civil Twilight 6:42 AM CDT 8:50 PM CDT
Nautical Twilight 6:12 AM CDT 9:20 PM CDT
Astronomical Twilight 5:41 AM CDT 9:51 PM CDT
Moon No Moon Rise 10:37 AM CDT (4/29)
Length of Visible Light 14h 08m
Length of Day
13h 17m
Waning Gibbous, 80% of the Moon is Illuminated
Apr 29
Waning Gibbous
May 2
Last Quarter
May 9
New
May 17
First Quarter
May 24
Full

Hourly Weather History & Observations

Time (CDT) Temp. Dew Point Humidity Pressure Visibility Wind Dir Wind Speed Gust Speed Precip Events Conditions
12:53 AM 63.0 °F 53.1 °F 70% 29.87 in - ENE 9.2 mph - N/A   Unknown
1:53 AM 63.0 °F 55.0 °F 75% 29.87 in - ESE 12.7 mph 24.2 mph N/A   Unknown
2:53 AM 61.0 °F 55.0 °F 81% 29.86 in - South 5.8 mph - N/A   Unknown
3:53 AM 60.1 °F 53.1 °F 78% 29.81 in - SW 16.1 mph - N/A   Unknown
4:53 AM 59.0 °F 52.0 °F 78% 29.82 in - WNW 4.6 mph - N/A   Unknown
5:53 AM 59.0 °F 53.1 °F 81% 29.81 in - West 4.6 mph - N/A   Unknown
6:53 AM 55.0 °F 50.0 °F 83% 29.83 in - East 4.6 mph - N/A   Unknown
7:53 AM 55.9 °F 50.0 °F 80% 29.84 in - Calm Calm - N/A   Unknown
8:53 AM 63.0 °F 53.1 °F 70% 29.84 in - Calm Calm - N/A   Unknown
9:53 AM 69.1 °F 50.0 °F 51% 29.84 in - SSW 6.9 mph - N/A   Unknown
10:53 AM 72.0 °F 51.1 °F 48% 29.83 in - South 6.9 mph - N/A   Unknown
11:53 AM 75.0 °F 48.9 °F 40% 29.82 in - Variable 4.6 mph - N/A   Unknown
12:53 PM 78.1 °F 48.0 °F 35% 29.80 in - South 4.6 mph - N/A   Unknown
1:53 PM 82.0 °F 46.0 °F 28% 29.76 in - East 4.6 mph - N/A   Unknown
2:53 PM 82.9 °F 44.1 °F 25% 29.74 in - Variable 4.6 mph - N/A   Unknown
3:53 PM 86.0 °F 44.1 °F 23% 29.70 in - SE 10.4 mph 17.3 mph N/A   Unknown
4:53 PM 87.1 °F 41.0 °F 20% 29.68 in - ESE 6.9 mph - N/A   Unknown
5:53 PM 87.1 °F 41.0 °F 20% 29.66 in - ESE 10.4 mph - N/A   Unknown
6:53 PM 86.0 °F 41.0 °F 20% 29.65 in - ESE 8.1 mph - N/A   Unknown
7:53 PM 84.0 °F 44.1 °F 25% 29.65 in - ESE 9.2 mph - N/A   Unknown
8:53 PM 78.1 °F 44.1 °F 30% 29.67 in - East 6.9 mph - N/A   Unknown
9:53 PM 73.0 °F 46.9 °F 39% 29.69 in - ENE 6.9 mph - N/A   Unknown
10:53 PM 69.1 °F 46.9 °F 45% 29.70 in - ENE 5.8 mph - N/A   Unknown
11:53 PM 69.1 °F 48.0 °F 47% 29.70 in - Calm Calm - N/A   Unknown